Location: Prairie Dale
(45.6972°N, 104.5033°W)
Time: 20:53:23
(UTC+00:00)

EO-79 - Pass Details

Date: 03 July 2022
Orbit: 588 x 603 km, 98.0° (Epoch: 11 August)

Event Time Altitude Azimuth Distance (km) Brightness Sun altitude
Rises 07:44:36 0° 27° (NNE) 2,857 ? -20.7°
Reaches altitude 10° 07:47:16 10° 45° (NE) 1,951 ? -20.6°
Maximum altitude 07:50:25 20° 93° (E) 1,403 ? -20.5°
Enters shadow 07:51:54 17° 120° (ESE) 1,539 ? -20.4°
